This is the latest recevied weather packets stored in our database for station/object W2EH. If no packets are shown the sender has not sent any weather packets the latest 10 day(s).
| Time | Temp. | Humidity | Pressure | Rain* | Wind** | Luminosity | Snow |
|---|---|---|---|---|---|---|---|
| 1777475039 | 24.44° C | 93% | 1012.3 hPa | 0 mm | - | 59 W/m² | - |
| 1777474736 | 24.44° C | 93% | 1012 hPa | 0 mm | - | 58 W/m² | - |
| 1777474432 | 25° C | 93% | 1012.1 hPa | 0 mm | - | 50 W/m² | - |
| 1777474128 | 24.44° C | 93% | 1011.9 hPa | 0 mm | - | 54 W/m² | - |
| 1777473827 | 25° C | 93% | 1011.5 hPa | 0 mm | - | 79 W/m² | - |
| 1777473523 | 25° C | 93% | 1011.4 hPa | 0 mm | - | 52 W/m² | - |
| 1777473219 | 25° C | 92% | 1011.7 hPa | 0 mm | - | 49 W/m² | - |
| 1777472916 | 25° C | 92% | 1011.8 hPa | 0 mm | - | 37 W/m² | - |
| 1777472612 | 25° C | 92% | 1011.9 hPa | 0 mm | - | 26 W/m² | - |
| 1777472309 | 25° C | 91% | 1011.9 hPa | 0 mm | - | 20 W/m² | - |
| 1777472006 | 25° C | 91% | 1011.7 hPa | 0 mm | - | 21 W/m² | - |
| 1777471702 | 25° C | 91% | 1011.8 hPa | 0 mm | - | 23 W/m² | - |
| 1777471398 | 25° C | 91% | 1011.5 hPa | 0 mm | - | 30 W/m² | - |
| 1777471095 | 25° C | 91% | 1011.6 hPa | 0 mm | - | 35 W/m² | - |
| 1777470792 | 25° C | 91% | 1011.7 hPa | 0 mm | - | 17 W/m² | - |
| 1777470489 | 24.44° C | 91% | 1011.6 hPa | 0 mm | - | 16 W/m² | - |
| 1777470184 | 24.44° C | 91% | 1011.4 hPa | 0 mm | - | 14 W/m² | - |
| 1777469881 | 24.44° C | 91% | 1011.3 hPa | 0 mm | - | 12 W/m² | - |
| 1777469577 | 24.44° C | 91% | 1011.2 hPa | 0 mm | - | 13 W/m² | - |
| 1777469271 | 24.44° C | 91% | 1011.3 hPa | 0 mm | - | 13 W/m² | - |
| 1777468967 | 24.44° C | 91% | 1011.4 hPa | 0 mm | - | 9 W/m² | - |
| 1777468663 | 24.44° C | 91% | 1011.3 hPa | 0 mm | - | 9 W/m² | - |
| 1777468360 | 24.44° C | 91% | 1011.1 hPa | 0 mm | - | 9 W/m² | - |
| 1777468056 | 24.44° C | 91% | 1011.2 hPa | 0 mm | - | 11 W/m² | - |
| 1777467752 | 24.44° C | 91% | 1011 hPa | 0 mm | - | 10 W/m² | - |
* Rain latest hour (hover to see other rain measurements)
** Current wind speed in m/s (hover to see current wind gust speed)